QPF
0.00 0.00 0.00 0.00 0.00 0.00 0.00 0.00 0.00 0.00 0.00 0.00 0.00 0.00 0.00 0.00 0.00 0.00 0.00 0.00 0.00 0.00 0.00 0.00 0.00 0.00 0.00 0.00 0.00 0.00 0.00 0.00 0.01 0.01 0.00 0.00 0.00 0.00 0.00 0.00 0.00 0.00 0.00 0.00 0.01 0.00 0.00 0.00 0.00
0.00 0.00 0.00 0.00 0.00 0.00 0.00 0.00 0.00 0.00 0.00 0.00 0.00 0.00 0.00 0.00 0.00 0.00 0.00 0.00 0.00 0.00 0.00 0.00 0.00 0.00 0.00 0.00 0.00 0.00 0.00 0.00 0.00 0.00 0.00 0.00 0.00 0.00 0.00 0.00 0.00 0.00 0.00 0.00 0.00 0.00 0.00 0.00 0.00
0.00 0.00 0.00 0.00 0.00 0.00 0.00 0.00 0.00 0.00 0.00 0.00 0.00 0.00 0.00 0.00 0.00 0.00 0.00 0.00 0.00 0.00 0.00 0.00 0.00 0.00 0.00 0.00 0.00 0.00 0.00 0.00 0.00 0.00 0.00 0.00 0.00 0.00 0.00 0.00 0.00 0.00 0.00 0.00 0.00 0.00 0.00 0.00 0.00
0.00 0.00 0.00 0.00 0.00 0.00 0.00 0.00 0.00 0.00 0.00 0.00 0.00 0.00 0.00 0.00 0.00 0.00 0.00 0.00 0.00 0.00 0.00 0.00 0.00 0.00 0.00 0.00 0.00 0.00 0.00 0.00 0.00 0.00 0.00 0.00 0.00 0.00 0.00 0.00 0.00 0.00 0.00 0.00 0.00 0.00 0.00 0.00 0.00
0.00 0.00 0.00 0.00 0.00 0.00 0.00 0.00 0.00 0.00 0.00 0.00 0.00 0.00 0.00 0.00 0.00 0.00 0.00 0.00 0.00 0.00 0.00 0.00 0.00 0.00 0.00 0.00 0.00 0.00 0.00 0.00 0.00 0.00 0.00 0.00 0.00 0.00 0.00 0.00 0.00 0.00 0.00 0.00 0.00 0.00 0.00 0.00 0.00
0.00 0.00 0.00 0.00 0.00 0.00 0.00 0.00 0.00 0.00 0.00 0.00 0.00 0.00 0.00 0.00 0.00 0.00 0.00 0.00 0.00 0.00 0.00 0.00 0.00 0.00 0.00 0.00 0.00 0.00 0.00 0.00 0.00 0.00 0.00 0.00 0.00 0.00 0.00 0.00 0.00 0.00 0.00 0.00 0.00 0.00 0.00 0.00 0.00
0.00 0.00 0.00 0.00 0.00 0.00 0.00 0.00 0.00 0.00 0.00 0.00 0.00 0.00 0.00 0.00 0.00 0.00 0.00 0.00 0.00 0.00 0.00 0.00 0.00 0.00 0.00 0.00 0.00 0.00 0.00 0.00 0.00 0.00 0.00 0.00 0.00 0.00 0.00 0.00 0.00 0.00 0.00 0.00 0.00 0.00 0.00 0.00 0.00
0.00 0.00 0.00 0.00 0.00 0.00 0.00 0.00 0.00 0.00 0.00 0.00 0.00 0.00 0.00 0.00 0.00 0.00 0.00 0.00 0.00 0.00 0.00 0.00 0.00 0.00 0.00 0.00 0.00 0.00 0.00 0.00 0.00 0.00 0.00 0.00 0.00 0.00 0.00 0.00 0.00 0.00 0.00 0.00 0.00 0.00 0.00 0.00 0.00
0.00 0.00 0.00 0.00 0.00 0.00 0.00 0.00 0.00 0.00 0.00 0.00 0.00 0.00 0.00 0.00 0.00 0.00 0.00 0.00 0.00 0.00 0.00 0.00 0.00 0.00 0.00 0.00 0.00 0.00 0.00 0.00 0.00 0.00 0.00 0.00 0.00 0.00 0.00 0.00 0.00 0.00 0.00 0.00 0.00 0.00 0.00 0.00 0.00
0.00 0.00 0.00 0.00 0.00 0.00 0.00 0.00 0.00 0.00 0.00 0.00 0.00 0.00 0.00 0.00 0.00 0.00 0.00 0.00 0.00 0.00 0.00 0.00 0.00 0.00 0.00 0.00 0.00 0.00 0.00 0.00 0.00 0.00 0.00 0.00 0.00 0.00 0.00 0.00 0.00 0.00 0.00 0.00 0.00 0.00 0.00 0.00 0.00
0.00 0.00 0.00 0.00 0.00 0.00 0.00 0.00 0.00 0.00 0.00 0.00 0.00 0.00 0.00 0.00 0.00 0.00 0.00 0.00 0.00 0.00 0.00 0.00 0.00 0.00 0.00 0.00 0.00 0.00 0.00 0.00 0.00 0.00 0.00 0.00 0.00 0.00 0.00 0.00 0.00 0.00 0.00 0.00 0.00 0.00 0.00 0.00 0.00
0.00 0.00 0.00 0.00 0.00 0.00 0.00 0.00 0.00 0.00 0.00 0.00 0.00 0.00 0.00 0.00 0.00 0.00 0.00 0.00 0.00 0.00 0.00 0.00 0.00 0.00 0.00 0.00 0.00 0.00 0.00 0.00 0.00 0.00 0.00 0.00 0.00 0.00 0.00 0.00 0.00 0.00 0.00 0.00 0.00 0.00 0.00 0.00 0.00
0.00 0.00 0.00 0.00 0.00 0.00 0.00 0.00 0.00 0.00 0.00 0.00 0.00 0.00 0.00 0.00 0.00 0.00 0.00 0.00 0.00 0.00 0.00 0.00 0.00 0.00 0.00 0.00 0.00 0.00 0.00 0.00 0.00 0.00 0.00 0.00 0.00 0.00 0.00 0.00 0.00 0.00 0.00 0.00 0.00 0.00 0.00 0.00 0.00
0.00 0.00 0.00 0.00 0.00 0.00 0.00 0.00 0.00 0.00 0.00 0.00 0.00 0.00 0.00 0.00 0.00 0.00 0.00 0.00 0.00 0.00 0.00 0.00 0.00 0.00 0.00 0.00 0.00 0.00 0.00 0.00 0.00 0.00 0.00 0.00 0.00 0.00 0.00 0.00 0.00 0.00 0.00 0.00 0.00 0.00 0.00 0.00 0.00
0.00 0.00 0.00 0.00 0.00 0.00 0.00 0.00 0.00 0.00 0.00 0.00 0.00 0.00 0.00 0.00 0.00 0.00 0.00 0.00 0.00 0.00 0.00 0.00 0.00 0.00 0.00 0.00 0.00 0.00 0.00 0.00 0.00 0.00 0.00 0.00 0.00 0.00 0.00 0.00 0.00 0.00 0.00 0.00 0.00 0.00 0.00 0.00 0.00
0.00 0.00 0.00 0.00 0.00 0.00 0.00 0.00 0.00 0.00 0.00 0.00 0.00 0.00 0.00 0.00 0.00 0.00 0.00 0.00 0.00 0.00 0.00 0.00 0.00 0.00 0.00 0.00 0.00 0.00 0.00 0.00 0.00 0.00 0.00 0.00 0.00 0.00 0.00 0.00 0.00 0.00 0.00 0.00 0.00 0.00 0.00 0.00 0.00
0.00 0.00 0.00 0.00 0.00 0.00 0.00 0.00 0.00 0.00 0.00 0.00 0.00 0.00 0.00 0.00 0.00 0.00 0.00 0.00 0.00 0.00 0.00 0.00 0.00 0.00 0.00 0.00 0.00 0.00 0.00 0.00 0.00 0.00 0.00 0.00 0.00 0.00 0.00 0.00 0.00 0.00 0.00 0.00 0.00 0.00 0.00 0.00 0.00
0.00 0.00 0.00 0.00 0.00 0.00 0.00 0.00 0.00 0.00 0.00 0.00 0.00 0.00 0.00 0.00 0.00 0.00 0.00 0.00 0.00 0.00 0.00 0.00 0.00 0.00 0.00 0.00 0.00 0.00 0.00 0.00 0.00 0.00 0.00 0.00 0.00 0.00 0.00 0.00 0.00 0.00 0.00 0.00 0.00 0.00 0.00 0.00 0.00
0.00 0.00 0.00 0.00 0.00 0.00 0.00 0.00 0.00 0.00 0.00 0.00 0.00 0.00 0.00 0.00 0.00 0.00 0.00 0.00 0.00 0.00 0.00 0.00 0.00 0.00 0.00 0.00 0.00 0.00 0.00 0.00 0.00 0.00 0.00 0.00 0.00 0.00 0.00 0.00 0.00 0.00 0.00 0.00 0.00 0.00 0.00 0.00 0.00
0.00 0.00 0.00 0.00 0.00 0.00 0.00 0.00 0.00 0.00 0.00 0.00 0.00 0.00 0.00 0.00 0.00 0.00 0.00 0.00 0.00 0.00 0.00 0.00 0.00 0.00 0.00 0.00 0.00 0.00 0.00 0.00 0.00 0.00 0.00 0.00 0.00 0.00 0.00 0.00 0.00 0.00 0.00 0.00 0.00 0.00 0.00 0.00 0.00
0.00 0.00 0.00 0.00 0.00 0.00 0.00 0.00 0.00 0.00 0.00 0.00 0.00 0.00 0.00 0.00 0.00 0.00 0.00 0.00 0.00 0.00 0.00 0.00 0.00 0.00 0.00 0.00 0.00 0.00 0.00 0.00 0.00 0.00 0.00 0.00 0.00 0.00 0.00 0.00 0.00 0.00 0.00 0.00 0.00 0.00 0.00 0.00 0.00
0.00 0.00 0.00 0.00 0.00 0.00 0.00 0.00 0.00 0.00 0.00 0.00 0.00 0.00 0.00 0.00 0.00 0.00 0.00 0.00 0.00 0.00 0.00 0.00 0.00 0.00 0.00 0.00 0.00 0.00 0.00 0.00 0.00 0.00 0.00 0.00 0.00 0.00 0.00 0.00 0.00 0.00 0.00 0.00 0.00 0.00 0.00 0.00 0.00
0.00 0.00 0.00 0.00 0.00 0.00 0.00 0.00 0.00 0.00 0.00 0.00 0.00 0.00 0.00 0.00 0.00 0.00 0.00 0.00 0.00 0.00 0.00 0.00 0.00 0.00 0.00 0.00 0.00 0.00 0.00 0.00 0.00 0.00 0.00 0.00 0.00 0.00 0.00 0.00 0.00 0.00 0.00 0.00 0.00 0.00 0.00 0.00 0.00
0.00 0.00 0.00 0.00 0.00 0.00 0.00 0.00 0.00 0.00 0.00 0.00 0.00 0.00 0.00 0.00 0.00 0.00 0.00 0.00 0.00 0.00 0.00 0.00 0.00 0.00 0.00 0.00 0.00 0.00 0.00 0.00 0.00 0.00 0.00 0.00 0.00 0.00 0.00 0.00 0.00 0.00 0.00 0.00 0.00 0.00 0.00 0.00 0.00
0.00 0.00 0.00 0.00 0.00 0.00 0.00 0.00 0.00 0.00 0.00 0.00 0.00 0.00 0.00 0.00 0.00 0.00 0.00 0.00 0.00 0.00 0.00 0.00 0.00 0.00 0.00 0.00 0.00 0.00 0.00 0.00 0.00 0.00 0.00 0.00 0.00 0.00 0.00 0.00 0.00 0.00 0.00 0.00 0.00 0.00 0.00 0.00 0.00
0.00 0.00 0.00 0.00 0.00 0.00 0.00 0.00 0.00 0.00 0.00 0.00 0.00 0.00 0.00 0.00 0.00 0.00 0.00 0.00 0.00 0.00 0.00 0.00 0.00 0.00 0.00 0.00 0.00 0.00 0.00 0.00 0.00 0.00 0.00 0.00 0.00 0.00 0.00 0.00 0.00 0.00 0.00 0.00 0.00 0.00 0.00 0.00 0.00
0.00 0.00 0.00 0.00 0.00 0.00 0.00 0.00 0.00 0.00 0.00 0.00 0.00 0.00 0.00 0.00 0.00 0.00 0.00 0.00 0.00 0.00 0.00 0.00 0.00 0.00 0.00 0.00 0.00 0.00 0.00 0.00 0.00 0.00 0.00 0.00 0.00 0.00 0.00 0.00 0.00 0.00 0.00 0.00 0.00 0.00 0.00 0.00 0.00
0.00 0.00 0.00 0.00 0.00 0.00 0.00 0.00 0.00 0.00 0.00 0.00 0.00 0.00 0.00 0.00 0.00 0.00 0.00 0.00 0.00 0.00 0.00 0.00 0.00 0.00 0.00 0.00 0.00 0.00 0.00 0.00 0.00 0.00 0.00 0.00 0.00 0.00 0.00 0.00 0.00 0.00 0.00 0.00 0.00 0.00 0.00 0.00 0.00
0.00 0.00 0.00 0.00 0.00 0.00 0.00 0.00 0.00 0.00 0.00 0.00 0.00 0.00 0.00 0.00 0.00 0.00 0.00 0.00 0.00 0.00 0.00 0.00 0.00 0.00 0.00 0.00 0.00 0.00 0.00 0.00 0.00 0.00 0.00 0.00 0.00 0.00 0.00 0.00 0.00 0.00 0.00 0.00 0.00 0.00 0.00 0.00 0.00
0.00 0.00 0.00 0.00 0.00 0.00 0.00 0.00 0.00 0.00 0.00 0.00 0.00 0.00 0.00 0.00 0.00 0.00 0.00 0.00 0.00 0.00 0.00 0.00 0.00 0.00 0.00 0.00 0.00 0.00 0.00 0.00 0.00 0.00 0.00 0.00 0.00 0.00 0.00 0.00 0.00 0.00 0.00 0.00 0.00 0.00 0.00 0.00 0.00
MSLP
1014.74 1014.46 1014.77 1014.91 1016.40 1016.67 1015.80 1014.30 1013.34 1013.32 1013.19 1013.31 1013.32 1013.83 1014.37 1015.34 1016.25 1017.99 1018.13 1018.05 1018.19 1018.59 1018.74 1018.72 1018.59 1018.60 1018.49 1018.43 1018.39 1018.45 1018.53 1018.61 1018.68 1018.84 1019.27 1019.39 1019.50 1019.57 1019.62 1019.74 1019.83 1019.85 1019.64 1019.44 1019.52 1019.63 1019.55 1019.56 1019.30
1014.70 1014.43 1014.92 1015.61 1016.53 1016.55 1015.26 1014.02 1013.75 1013.53 1013.42 1013.36 1013.52 1014.01 1014.51 1015.69 1016.37 1017.53 1017.99 1017.96 1017.98 1018.51 1018.74 1018.76 1018.58 1018.60 1018.71 1018.80 1018.77 1018.75 1018.77 1018.99 1019.00 1019.18 1019.42 1019.69 1019.91 1019.97 1020.15 1020.20 1020.23 1020.25 1020.10 1020.01 1019.96 1019.94 1019.94 1019.87 1019.56
1014.65 1014.56 1015.71 1016.12 1016.38 1015.87 1014.66 1013.76 1013.76 1013.73 1013.53 1013.59 1014.07 1014.26 1014.78 1015.56 1016.36 1016.75 1017.00 1017.40 1017.75 1018.32 1018.56 1018.65 1018.70 1018.75 1018.85 1018.93 1019.08 1019.11 1019.22 1019.39 1019.43 1019.65 1019.84 1019.96 1020.02 1020.13 1020.25 1020.37 1020.50 1020.43 1020.27 1020.20 1020.15 1020.30 1020.32 1020.14 1020.05
1014.84 1015.23 1016.14 1016.31 1015.91 1014.64 1013.76 1013.38 1013.35 1013.75 1013.80 1013.81 1014.12 1014.75 1015.01 1015.18 1015.64 1016.29 1016.91 1017.20 1017.80 1018.21 1018.40 1018.53 1018.55 1018.68 1018.88 1019.02 1019.14 1019.26 1019.43 1019.48 1019.87 1020.09 1020.14 1020.18 1020.35 1020.42 1020.54 1020.59 1020.59 1020.51 1020.42 1020.34 1020.35 1020.46 1020.40 1020.29 1020.21
1015.27 1015.97 1016.41 1016.13 1015.14 1013.84 1013.01 1012.78 1013.11 1013.68 1013.91 1014.11 1014.26 1014.79 1015.33 1015.59 1015.75 1016.17 1016.70 1017.24 1017.81 1018.46 1018.58 1018.58 1018.55 1018.69 1018.91 1019.15 1019.31 1019.41 1019.59 1019.70 1020.06 1020.39 1020.47 1020.62 1020.74 1020.78 1020.83 1020.78 1020.77 1020.75 1020.75 1020.80 1020.83 1020.83 1020.68 1020.60 1020.51
1015.88 1016.21 1016.49 1015.91 1014.51 1013.12 1012.44 1012.11 1012.71 1013.33 1013.81 1014.25 1014.65 1015.10 1015.44 1015.63 1016.08 1016.46 1016.65 1017.15 1017.53 1018.15 1018.48 1018.60 1018.61 1018.68 1018.86 1019.10 1019.31 1019.51 1019.69 1019.91 1020.22 1020.42 1020.71 1020.88 1020.92 1021.03 1021.15 1021.14 1021.09 1021.13 1021.18 1021.11 1021.03 1020.98 1020.87 1020.75 1020.57
1015.83 1016.31 1016.00 1015.05 1013.95 1012.91 1012.24 1012.01 1012.37 1012.92 1013.54 1013.92 1013.90 1015.09 1015.66 1016.24 1016.24 1016.39 1016.60 1017.04 1017.48 1017.91 1018.34 1018.63 1018.75 1018.82 1019.03 1019.18 1019.24 1019.35 1019.60 1019.95 1020.18 1020.43 1020.68 1020.81 1021.01 1021.26 1021.40 1021.39 1021.25 1021.26 1021.22 1021.05 1020.96 1020.99 1020.90 1020.75 1020.63
1015.41 1016.03 1015.59 1014.35 1013.37 1012.50 1012.01 1011.96 1012.08 1012.68 1013.13 1013.20 1013.42 1014.16 1014.88 1014.98 1015.84 1016.33 1016.80 1017.09 1017.45 1017.71 1018.05 1018.50 1018.74 1018.98 1019.28 1019.33 1019.29 1019.41 1019.70 1019.97 1020.23 1020.47 1020.69 1020.77 1020.88 1021.17 1021.35 1021.45 1021.26 1021.23 1021.16 1020.92 1021.02 1020.81 1020.90 1021.03 1020.90
1015.13 1015.83 1015.35 1014.12 1012.94 1012.25 1011.94 1012.07 1012.20 1012.40 1012.80 1013.05 1013.23 1013.57 1013.83 1014.39 1015.68 1016.50 1016.97 1017.25 1017.45 1017.48 1017.65 1018.04 1018.43 1018.83 1019.18 1019.32 1019.36 1019.54 1019.87 1020.18 1020.42 1020.55 1020.74 1020.99 1021.23 1021.44 1021.56 1021.43 1021.43 1021.48 1021.36 1021.29 1021.16 1021.10 1021.28 1021.19 1021.13
1015.32 1015.70 1014.54 1013.10 1012.56 1012.17 1011.99 1012.08 1012.26 1012.68 1012.76 1012.94 1013.22 1013.65 1014.12 1014.73 1015.50 1016.08 1016.42 1016.60 1016.87 1017.06 1017.20 1017.48 1017.83 1018.28 1018.72 1018.83 1019.28 1019.61 1019.88 1020.17 1020.44 1020.67 1020.82 1021.00 1021.19 1021.34 1021.46 1021.58 1021.65 1021.71 1021.67 1021.54 1021.58 1021.58 1021.64 1021.47 1021.41
1014.75 1014.68 1013.67 1012.78 1012.30 1012.10 1012.00 1012.13 1012.13 1012.50 1012.60 1012.35 1012.48 1012.97 1013.99 1014.58 1015.03 1015.29 1015.56 1015.63 1015.41 1016.14 1016.67 1016.89 1017.23 1017.68 1018.10 1018.48 1019.19 1019.61 1019.86 1020.18 1020.35 1020.41 1020.61 1020.77 1021.00 1021.28 1021.64 1021.84 1021.92 1021.98 1021.99 1021.94 1021.88 1021.82 1021.77 1021.64 1021.60
1014.19 1013.56 1013.37 1012.82 1012.22 1012.10 1012.25 1012.21 1012.03 1012.04 1010.86 1011.12 1011.28 1011.88 1013.26 1013.90 1014.18 1014.20 1014.50 1014.67 1015.06 1015.50 1015.75 1016.25 1016.71 1017.23 1017.70 1018.22 1018.74 1019.26 1019.66 1020.02 1020.22 1020.24 1020.34 1020.66 1021.06 1021.42 1021.82 1022.14 1022.14 1022.10 1022.06 1021.95 1021.86 1021.79 1021.78 1021.65 1021.46
1013.63 1013.35 1013.05 1012.72 1012.56 1012.23 1012.11 1012.31 1012.64 1011.36 1010.87 1011.05 1011.18 1011.70 1012.21 1012.91 1013.02 1013.16 1013.26 1013.85 1014.36 1014.73 1015.06 1015.50 1016.07 1016.60 1017.11 1017.75 1018.22 1018.68 1019.13 1019.53 1019.83 1019.98 1020.12 1020.38 1020.90 1021.41 1021.70 1021.96 1022.05 1022.11 1022.04 1021.98 1021.98 1022.09 1021.95 1021.83 1021.62
1013.43 1013.32 1012.99 1012.54 1012.19 1012.21 1012.46 1012.34 1012.68 1009.85 1010.04 1010.54 1010.79 1010.76 1011.10 1011.42 1011.57 1012.38 1012.84 1012.82 1013.24 1013.65 1014.15 1014.81 1015.48 1015.98 1016.65 1017.31 1017.78 1018.19 1018.62 1018.99 1019.45 1019.74 1019.99 1020.26 1020.77 1021.19 1021.59 1021.96 1022.13 1022.27 1022.13 1022.08 1022.14 1022.17 1022.17 1022.18 1022.18
1013.43 1013.62 1012.94 1011.69 1011.32 1012.12 1012.33 1012.33 1011.54 1009.17 1010.09 1010.20 1010.14 1009.97 1010.10 1010.23 1010.77 1010.54 1010.43 1011.33 1011.97 1012.61 1013.37 1014.02 1014.81 1015.58 1016.21 1016.79 1017.31 1017.83 1018.25 1018.72 1019.27 1019.67 1019.99 1020.26 1020.56 1020.96 1021.41 1021.75 1022.13 1022.29 1022.22 1022.13 1022.19 1022.24 1022.22 1022.27 1021.96
1014.01 1014.06 1013.37 1011.06 1011.36 1011.66 1011.95 1011.04 1009.07 1009.18 1009.91 1009.77 1009.40 1009.40 1009.47 1009.07 1008.93 1008.90 1009.30 1009.96 1010.80 1011.70 1012.43 1013.35 1014.07 1014.93 1015.77 1016.44 1017.08 1017.63 1018.11 1018.63 1019.07 1019.54 1019.89 1020.17 1020.47 1020.78 1021.22 1021.55 1021.81 1021.91 1021.96 1022.01 1022.22 1022.31 1022.45 1022.50 1022.53
1014.45 1014.00 1013.28 1011.65 1010.93 1011.60 1012.12 1010.79 1008.99 1008.76 1009.24 1009.08 1008.79 1008.75 1008.55 1008.14 1007.91 1007.73 1008.19 1008.62 1009.36 1010.19 1011.25 1012.26 1013.20 1014.21 1015.29 1016.28 1016.96 1017.49 1017.99 1018.46 1018.89 1019.26 1019.67 1019.99 1020.27 1020.63 1021.10 1021.37 1021.61 1021.83 1022.07 1022.27 1022.38 1022.49 1022.69 1022.77 1022.55
1013.83 1013.90 1012.80 1012.01 1011.44 1011.54 1011.63 1010.43 1008.86 1008.64 1008.97 1008.71 1008.27 1007.87 1007.52 1007.17 1006.20 1006.31 1007.03 1007.49 1008.24 1009.23 1010.25 1011.49 1012.64 1013.65 1014.62 1015.77 1016.83 1017.64 1018.30 1018.69 1018.92 1019.25 1019.50 1019.70 1020.03 1020.40 1020.74 1021.03 1021.34 1021.68 1022.03 1022.23 1022.21 1022.44 1022.66 1022.77 1022.52
1013.02 1012.85 1012.54 1011.08 1010.79 1011.11 1010.48 1009.87 1008.73 1008.21 1008.37 1008.21 1007.61 1007.02 1006.14 1005.57 1004.97 1005.43 1005.87 1006.51 1007.57 1008.79 1009.87 1010.91 1012.08 1013.17 1014.11 1015.27 1016.43 1017.51 1017.97 1018.40 1018.76 1018.88 1019.08 1019.46 1019.95 1020.34 1020.69 1021.01 1021.31 1021.63 1021.85 1021.86 1022.01 1022.27 1022.56 1022.64 1022.47
1012.77 1012.42 1011.77 1010.55 1010.00 1010.47 1009.88 1008.91 1008.21 1007.96 1007.04 1006.60 1006.43 1005.77 1004.72 1004.93 1004.85 1004.86 1005.35 1006.28 1006.98 1008.02 1009.29 1010.51 1011.54 1012.58 1013.47 1014.39 1015.29 1016.22 1017.06 1018.01 1018.37 1018.71 1019.07 1019.33 1019.74 1020.00 1020.39 1020.73 1021.14 1021.38 1021.54 1021.49 1021.82 1022.18 1022.54 1022.74 1022.69
1011.68 1011.95 1011.06 1010.63 1010.36 1009.77 1009.38 1008.04 1007.60 1006.62 1005.96 1005.41 1004.79 1003.98 1003.71 1004.08 1004.44 1004.75 1005.43 1005.78 1006.62 1007.66 1008.56 1009.57 1010.67 1011.70 1012.59 1013.54 1014.86 1016.03 1017.19 1017.93 1018.44 1018.47 1018.69 1018.83 1019.17 1019.62 1019.89 1020.37 1020.83 1021.22 1021.13 1021.17 1021.60 1021.97 1022.38 1022.95 1023.16
1010.24 1010.70 1010.71 1011.01 1011.37 1010.58 1009.80 1006.32 1006.19 1005.81 1005.35 1004.58 1003.78 1002.61 1002.67 1003.17 1003.59 1003.91 1004.88 1005.73 1005.95 1006.82 1008.03 1008.98 1009.94 1010.89 1011.98 1013.01 1014.04 1014.76 1015.17 1016.05 1016.08 1016.52 1017.59 1018.43 1019.03 1019.41 1019.69 1020.10 1020.55 1020.98 1020.89 1020.75 1021.36 1021.86 1022.53 1022.92 1023.41
1009.55 1010.21 1010.78 1011.20 1011.53 1011.11 1009.91 1009.61 1004.97 1004.65 1004.52 1003.64 1002.69 1001.80 1001.50 1001.97 1002.53 1003.40 1004.15 1004.54 1005.54 1006.53 1007.39 1008.45 1009.55 1010.52 1011.41 1012.26 1012.95 1013.90 1014.68 1015.27 1015.75 1016.74 1017.45 1018.14 1018.83 1019.18 1019.50 1019.69 1020.04 1020.52 1020.73 1020.63 1021.33 1021.96 1022.53 1022.83 1023.12
1010.76 1011.06 1011.22 1011.64 1012.14 1010.60 1010.22 1009.13 1002.47 1003.84 1002.98 1002.32 1001.51 1001.02 1000.76 1001.13 1002.11 1002.99 1003.84 1004.73 1006.05 1006.78 1007.46 1008.30 1009.16 1009.86 1010.42 1011.38 1012.24 1012.98 1013.71 1014.53 1015.39 1016.20 1016.99 1017.50 1018.10 1018.58 1018.96 1019.27 1019.87 1020.19 1020.54 1020.38 1021.20 1021.86 1022.37 1022.78 1023.04
1011.42 1011.81 1012.54 1012.59 1012.73 1009.25 1007.85 1007.27 1002.62 1002.65 1001.83 1001.04 1000.61 1000.11 999.81 1000.55 1001.99 1002.83 1003.90 1005.05 1005.80 1006.51 1007.09 1007.80 1008.55 1009.33 1010.10 1010.68 1011.29 1011.75 1012.64 1013.54 1014.09 1014.55 1015.52 1016.58 1017.34 1017.87 1018.16 1018.81 1019.49 1019.94 1020.26 1020.25 1020.93 1021.64 1022.11 1022.51 1022.89
1010.45 1011.36 1011.99 1011.53 1010.82 1008.51 1007.53 1004.36 1001.81 1000.94 1000.15 999.62 999.14 998.88 999.45 1000.62 1001.68 1002.46 1003.24 1004.36 1005.25 1006.09 1006.74 1007.29 1008.09 1008.84 1009.36 1009.94 1010.56 1011.21 1011.86 1012.52 1013.18 1013.69 1014.20 1015.04 1015.74 1016.42 1017.23 1018.01 1018.74 1019.35 1019.80 1019.90 1020.65 1021.31 1021.87 1022.43 1022.80
1009.50 1010.55 1009.62 1010.44 1009.62 1009.13 1005.05 1002.62 1000.66 1000.15 999.86 999.47 998.89 999.23 999.94 1000.35 1001.28 1002.34 1003.13 1003.82 1004.57 1005.31 1005.76 1006.07 1006.86 1007.52 1008.19 1008.74 1009.84 1010.63 1011.35 1011.66 1012.09 1012.89 1013.70 1014.34 1014.85 1015.76 1016.66 1017.48 1018.33 1019.07 1019.60 1019.81 1020.61 1021.29 1021.70 1022.21 1022.64
1008.19 1008.60 1009.71 1009.92 1009.83 1008.00 1004.27 1002.62 1000.57 1000.78 999.82 998.95 998.94 999.16 999.87 1000.58 1001.39 1002.21 1002.85 1003.35 1003.86 1004.45 1005.18 1005.98 1006.42 1006.77 1007.39 1008.01 1008.60 1009.26 1009.96 1010.81 1011.75 1012.61 1013.00 1013.92 1014.91 1015.47 1016.40 1017.39 1018.17 1018.81 1019.29 1019.37 1020.43 1021.15 1021.60 1022.05 1022.37
1008.88 1008.49 1008.43 1008.55 1007.87 1006.28 1004.91 1001.52 999.91 1000.25 999.80 999.51 998.99 999.20 999.92 1000.59 1001.24 1001.64 1001.95 1002.43 1003.10 1003.76 1004.59 1005.23 1005.69 1006.30 1006.91 1007.55 1007.93 1008.56 1009.17 1009.85 1010.85 1011.86 1012.68 1013.27 1014.25 1015.20 1016.14 1016.93 1017.78 1018.58 1019.03 1019.30 1020.18 1020.93 1021.66 1022.11 1022.43
1007.31 1007.59 1007.97 1007.74 1006.88 1006.03 1004.48 1002.12 1000.74 1000.37 1000.09 1000.30 998.92 999.07 999.24 999.86 1000.49 1000.95 1001.30 1001.87 1002.53 1002.98 1003.62 1003.99 1004.81 1005.39 1005.48 1006.53 1007.56 1008.23 1009.08 1009.82 1010.53 1011.28 1012.43 1013.09 1013.97 1014.98 1015.67 1016.47 1017.09 1017.90 1018.21 1018.91 1019.63 1020.71 1021.58 1022.17 1022.23
Thickness
5756 5757 5755 5746 5709 5697 5697 5720 5742 5731 5733 5738 5739 5732 5727 5724 5720 5698 5715 5716 5714 5710 5708 5708 5708 5708 5709 5709 5709 5708 5708 5708 5708 5707 5704 5703 5703 5703 5704 5703 5703 5702 5705 5707 5706 5706 5708 5708 5711
5755 5756 5747 5727 5696 5682 5694 5732 5729 5730 5734 5739 5737 5734 5728 5718 5720 5712 5713 5716 5716 5709 5708 5707 5709 5708 5706 5705 5706 5706 5706 5705 5705 5704 5703 5701 5699 5698 5696 5697 5698 5698 5700 5700 5701 5703 5703 5704 5708
5752 5752 5726 5709 5693 5686 5697 5730 5720 5728 5736 5735 5729 5734 5727 5719 5719 5719 5722 5719 5716 5711 5709 5707 5706 5705 5704 5704 5702 5701 5701 5700 5700 5699 5698 5698 5698 5697 5697 5696 5695 5695 5697 5697 5698 5697 5698 5700 5701
5744 5735 5722 5699 5696 5712 5727 5732 5727 5724 5733 5735 5731 5721 5727 5732 5725 5723 5720 5717 5713 5709 5707 5705 5705 5703 5702 5701 5700 5699 5697 5697 5694 5693 5693 5694 5694 5694 5694 5694 5695 5696 5696 5695 5695 5694 5696 5697 5698
5739 5722 5703 5697 5702 5724 5737 5732 5728 5726 5724 5726 5730 5720 5721 5726 5725 5722 5719 5715 5710 5705 5704 5702 5702 5700 5699 5697 5696 5696 5694 5693 5691 5689 5689 5689 5688 5689 5689 5690 5690 5691 5691 5690 5689 5689 5691 5692 5693
5721 5717 5694 5689 5710 5734 5739 5742 5732 5727 5726 5723 5722 5721 5722 5724 5721 5718 5717 5713 5709 5704 5702 5700 5699 5698 5697 5695 5693 5692 5691 5690 5688 5688 5686 5685 5685 5684 5683 5684 5684 5684 5684 5684 5685 5685 5687 5688 5690
5720 5705 5699 5708 5709 5724 5737 5743 5735 5729 5722 5721 5730 5716 5718 5716 5718 5717 5715 5712 5707 5704 5700 5698 5697 5696 5693 5691 5691 5690 5689 5687 5686 5684 5683 5683 5682 5680 5679 5679 5680 5680 5679 5681 5682 5681 5683 5685 5685
5721 5709 5710 5714 5714 5724 5738 5742 5744 5732 5727 5738 5736 5719 5721 5724 5720 5715 5711 5708 5705 5703 5699 5696 5694 5691 5689 5688 5688 5687 5685 5683 5681 5680 5678 5678 5677 5676 5675 5675 5676 5675 5675 5678 5677 5680 5679 5679 5680
5734 5697 5691 5711 5727 5733 5739 5734 5740 5740 5733 5735 5736 5735 5736 5728 5718 5711 5707 5704 5701 5701 5700 5696 5693 5689 5686 5685 5683 5681 5679 5677 5675 5674 5673 5671 5670 5669 5668 5668 5668 5668 5670 5670 5672 5673 5671 5673 5674
5712 5691 5708 5732 5735 5733 5737 5733 5731 5731 5728 5729 5732 5730 5728 5724 5717 5712 5707 5707 5703 5701 5700 5697 5693 5689 5685 5683 5680 5677 5674 5672 5670 5668 5666 5665 5664 5663 5662 5661 5661 5660 5660 5662 5662 5662 5663 5665 5667
5719 5703 5723 5733 5737 5735 5735 5733 5736 5726 5718 5729 5731 5733 5724 5719 5717 5715 5713 5711 5713 5705 5699 5697 5694 5690 5685 5681 5676 5673 5670 5667 5666 5664 5662 5660 5659 5657 5656 5655 5654 5654 5654 5654 5654 5654 5655 5657 5658
5716 5723 5725 5728 5737 5733 5725 5730 5731 5728 5741 5745 5743 5742 5728 5721 5719 5718 5716 5714 5709 5704 5701 5696 5691 5687 5683 5677 5673 5669 5665 5662 5661 5660 5658 5656 5653 5649 5646 5644 5645 5645 5646 5647 5647 5647 5647 5649 5650
5718 5720 5724 5725 5723 5725 5727 5717 5714 5728 5734 5737 5737 5736 5729 5725 5724 5722 5720 5714 5709 5705 5700 5695 5690 5685 5681 5676 5671 5667 5663 5659 5656 5655 5653 5651 5647 5643 5640 5638 5636 5636 5636 5636 5638 5636 5638 5639 5641
5717 5714 5714 5720 5720 5718 5713 5711 5712 5737 5737 5732 5731 5732 5728 5728 5728 5721 5713 5715 5711 5708 5701 5694 5688 5683 5677 5671 5667 5663 5659 5657 5652 5649 5646 5643 5639 5635 5632 5628 5627 5625 5626 5626 5626 5626 5626 5627 5627
5707 5695 5703 5725 5718 5707 5707 5702 5706 5738 5727 5728 5726 5730 5730 5728 5724 5727 5728 5720 5714 5709 5700 5693 5685 5678 5672 5667 5663 5658 5654 5650 5646 5641 5638 5634 5631 5628 5623 5621 5618 5616 5616 5616 5615 5615 5615 5616 5619
5688 5684 5675 5721 5710 5706 5699 5693 5731 5727 5715 5720 5727 5726 5724 5727 5730 5733 5728 5721 5714 5706 5699 5691 5684 5675 5667 5661 5656 5652 5647 5644 5639 5634 5631 5627 5624 5620 5616 5613 5610 5608 5607 5606 5605 5604 5603 5603 5604
5669 5656 5663 5694 5710 5690 5684 5686 5722 5727 5714 5718 5721 5719 5723 5728 5727 5732 5726 5722 5715 5710 5700 5691 5681 5671 5662 5653 5648 5644 5639 5636 5632 5628 5625 5621 5617 5612 5608 5606 5602 5598 5595 5593 5593 5592 5590 5590 5593
5656 5648 5667 5675 5696 5684 5668 5682 5713 5715 5708 5709 5717 5718 5717 5723 5735 5734 5727 5724 5716 5708 5698 5687 5676 5666 5658 5648 5641 5634 5628 5625 5622 5618 5615 5612 5609 5604 5601 5598 5593 5589 5586 5585 5584 5582 5580 5579 5582
5670 5663 5655 5687 5698 5672 5679 5677 5703 5713 5705 5703 5709 5719 5728 5730 5739 5733 5728 5724 5713 5700 5691 5681 5670 5660 5653 5644 5634 5625 5622 5616 5612 5611 5607 5603 5598 5594 5591 5588 5583 5579 5577 5576 5575 5572 5569 5568 5571
5660 5656 5657 5680 5692 5668 5669 5674 5690 5696 5711 5718 5716 5721 5732 5726 5728 5731 5723 5713 5708 5697 5686 5674 5665 5655 5648 5641 5633 5624 5617 5609 5606 5602 5597 5594 5590 5586 5581 5578 5573 5570 5568 5568 5564 5561 5557 5555 5556
5665 5652 5663 5658 5672 5668 5661 5656 5675 5696 5705 5717 5724 5730 5732 5726 5723 5721 5711 5709 5701 5691 5682 5672 5662 5653 5646 5637 5625 5615 5605 5598 5593 5592 5590 5587 5583 5578 5574 5569 5564 5560 5560 5557 5553 5549 5546 5540 5538
5661 5667 5662 5650 5642 5633 5655 5649 5675 5689 5692 5705 5716 5730 5727 5720 5721 5716 5706 5696 5696 5689 5677 5668 5658 5649 5639 5629 5622 5616 5615 5606 5603 5597 5586 5577 5572 5567 5564 5559 5555 5550 5549 5548 5542 5537 5531 5527 5522
5664 5661 5653 5648 5631 5624 5631 5617 5680 5683 5681 5700 5714 5725 5729 5722 5721 5712 5705 5703 5691 5681 5673 5662 5650 5641 5632 5625 5621 5612 5606 5601 5592 5582 5575 5567 5560 5556 5553 5550 5546 5541 5537 5536 5529 5522 5517 5513 5509
5647 5642 5637 5627 5612 5612 5619 5629 5672 5666 5682 5695 5709 5718 5724 5716 5712 5706 5699 5687 5674 5666 5661 5652 5642 5636 5630 5621 5615 5608 5601 5592 5584 5576 5567 5560 5553 5548 5543 5539 5533 5530 5525 5525 5516 5509 5503 5498 5495
5630 5617 5586 5584 5567 5618 5641 5621 5672 5673 5686 5695 5704 5713 5718 5707 5698 5686 5679 5670 5662 5653 5651 5644 5637 5628 5621 5617 5610 5604 5597 5590 5584 5578 5568 5555 5546 5539 5536 5529 5523 5518 5514 5512 5505 5496 5489 5483 5477
5612 5613 5584 5573 5600 5633 5597 5619 5660 5678 5689 5695 5703 5713 5708 5693 5688 5682 5672 5663 5655 5649 5641 5637 5629 5622 5616 5610 5601 5594 5589 5586 5578 5573 5567 5557 5549 5539 5529 5523 5515 5509 5503 5501 5492 5484 5475 5466 5460
5609 5594 5625 5586 5528 5566 5641 5652 5673 5677 5679 5681 5688 5686 5686 5681 5673 5671 5664 5659 5648 5641 5638 5635 5627 5620 5613 5607 5595 5588 5580 5576 5573 5564 5556 5548 5541 5531 5523 5514 5506 5498 5491 5485 5475 5466 5459 5450 5444
5607 5612 5587 5569 5567 5558 5626 5623 5653 5659 5673 5680 5673 5673 5672 5670 5663 5654 5651 5649 5641 5634 5626 5619 5615 5610 5605 5599 5592 5586 5578 5568 5557 5549 5546 5534 5524 5519 5511 5500 5492 5485 5477 5473 5459 5450 5443 5435 5428
5584 5584 5587 5584 5572 5587 5588 5628 5669 5654 5661 5660 5661 5661 5658 5656 5649 5645 5645 5640 5632 5622 5616 5609 5604 5599 5592 5586 5582 5575 5568 5561 5551 5540 5529 5523 5515 5505 5496 5487 5477 5467 5461 5456 5444 5434 5423 5414 5407
5588 5582 5580 5569 5572 5557 5570 5590 5653 5640 5643 5631 5647 5651 5650 5650 5646 5637 5633 5623 5612 5615 5606 5602 5594 5590 5588 5578 5567 5562 5552 5545 5537 5528 5515 5508 5500 5490 5482 5472 5464 5454 5449 5439 5430 5416 5404 5395 5391